,,Stat6,,Stat2,,Stat8,,Stat9,,Stat10,,Wind1,,Wind1,
time,status,PA1M_AVG,status,PR1M_SUM,status,RH1M_AVG,status,SR1M_AVG,status,TA1M_AVG,status,W1dAve1m,status,W1sAve1m,
2009-01-12, 00:00:00,VALID,919.701,VALID,0,VALID,100,VALID,-0.0679233,VALID,18.9466,VALID,46,VALID,0,
2009-01-12, 00:01:00,VALID,919.708,VALID,0,VALID,100,VALID,-0.0509425,VALID,18.9534,VALID,46,VALID,0,
2009-01-12, 00:02:00,VALID,919.714,VALID,0,VALID,100,VALID,-0.0849042,VALID,18.9534,VALID,46,VALID,0,
2009-01-12, 00:03:00,VALID,919.703,VALID,0,VALID,100,VALID,-0.0339617,VALID,18.9696,VALID,46,VALID,0,
2009-01-12, 00:04:00,VALID,919.702,VALID,0,VALID,100,VALID,-0.0339617,VALID,18.9793,VALID,46,VALID,0,
2009-01-12, 00:05:00,VALID,919.688,VALID,0,VALID,100,VALID,-0.0509425,VALID,18.9696,VALID,46,VALID,0,
2009-01-12, 00:06:00,VALID,919.691,VALID,0,VALID,100,VALID,-0.0509425,VALID,18.9114,VALID,46,VALID,0,
2009-01-12, 00:07:00,VALID,919.682,VALID,0,VALID,100,VALID,-0.0339617,VALID,18.8595,VALID,46,VALID,0,
2009-01-12, 00:08:00,VALID,919.701,VALID,0,VALID,100,VALID,0,VALID,18.7845,VALID,46,VALID,0,
2009-01-12, 00:09:00,VALID,919.695,VALID,0,VALID,100,VALID,0,VALID,18.7034,VALID,46,VALID,0,
2009-01-12, 00:10:00,VALID,919.722,VALID,0,VALID,100,VALID,0,VALID,18.6906,VALID,46,VALID,0,
2009-01-12, 00:11:00,VALID,919.717,VALID,0,VALID,100,VALID,0,VALID,18.6837,VALID,46,VALID,0,
2009-01-12, 00:12:00,VALID,919.719,VALID,0,VALID,100,VALID,0,VALID,18.7038,VALID,46,VALID,0,
2009-01-12, 00:13:00,VALID,919.711,VALID,0,VALID,100,VALID,0,VALID,18.7034,VALID,46,VALID,0,
2009-01-12, 00:14:00,VALID,919.717,VALID,0,VALID,100,VALID,0.0169808,VALID,18.6313,VALID,48,VALID,0,
2009-01-12, 00:15:00,VALID,919.716,VALID,0,VALID,100,VALID,0,VALID,18.5866,VALID,67,VALID,0,
2009-01-12, 00:16:00,VALID,919.696,VALID,0,VALID,100,VALID,-0.0169808,VALID,18.5414,VALID,115,VALID,0,
2009-01-12, 00:17:00,VALID,919.685,VALID,0,VALID,100,VALID,-0.0679233,VALID,18.5542,VALID,121,VALID,0,
2009-01-12, 00:18:00,VALID,919.68,VALID,0,VALID,100,VALID,-0.0169808,VALID,18.5803,VALID,121,VALID,0,
2009-01-12, 00:19:00,VALID,919.664,VALID,0,VALID,100,VALID,-0.0169808,VALID,18.5641,VALID,121,VALID,0,
2009-01-12, 00:20:00,VALID,919.633,VALID,0,VALID,100,VALID,0,VALID,18.5704,VALID,121,VALID,0,
2009-01-12, 00:21:00,VALID,919.621,VALID,0,VALID,100,VALID,0,VALID,18.5836,VALID,121,VALID,0,
2009-01-12, 00:22:00,VALID,919.629,VALID,0,VALID,100,VALID,0,VALID,18.5993,VALID,124,VALID,0,
2009-01-12, 00:23:00,VALID,919.633,VALID,0,VALID,100,VALID,-0.0339617,VALID,18.541,VALID,134,VALID,0,
2009-01-12, 00:24:00,VALID,919.618,VALID,0,VALID,100,VALID,-0.0169808,VALID,18.522,VALID,138,VALID,0,
2009-01-12, 00:25:00,VALID,919.589,VALID,0,VALID,100,VALID,-0.0339617,VALID,18.5477,VALID,141,VALID,0,
2009-01-12, 00:26:00,VALID,919.566,VALID,0,VALID,100,VALID,0,VALID,18.5838,VALID,142,VALID,0,
2009-01-12, 00:27:00,VALID,919.568,VALID,0,VALID,100,VALID,-0.0339617,VALID,18.6288,VALID,142,VALID,0,
2009-01-12, 00:28:00,VALID,919.575,VALID,0,VALID,100,VALID,-0.0339617,VALID,18.6577,VALID,149,VALID,0,
2009-01-12, 00:29:00,VALID,919.572,VALID,0,VALID,100,VALID,0,VALID,18.648,VALID,154,VALID,0,
2009-01-12, 00:30:00,VALID,919.552,VALID,0,VALID,100,VALID,-0.0169808,VALID,18.6577,VALID,154,VALID,0.151708,
2009-01-12, 00:31:00,VALID,919.55,VALID,0,VALID,100,VALID,0,VALID,18.6644,VALID,151,VALID,0,
2009-01-12, 00:32:00,VALID,919.559,VALID,0,VALID,100,VALID,0,VALID,18.6607,VALID,143,VALID,0.063058,
2009-01-12, 00:33:00,VALID,919.568,VALID,0,VALID,100,VALID,0,VALID,18.6809,VALID,150,VALID,0.0962936,
2009-01-12, 00:34:00,VALID,919.58,VALID,0,VALID,100,VALID,0.0169808,VALID,18.6841,VALID,151,VALID,0.170987,
2009-01-12, 00:35:00,VALID,919.565,VALID,0,VALID,100,VALID,0,VALID,18.6607,VALID,142,VALID,0.0517805,
2009-01-12, 00:36:00,VALID,919.568,VALID,0,VALID,100,VALID,0,VALID,18.661,VALID,149,VALID,0.0478516,
2009-01-12, 00:37:00,VALID,919.579,VALID,0,VALID,100,VALID,0.0169808,VALID,18.6642,VALID,144,VALID,0,
2009-01-12, 00:38:00,VALID,919.584,VALID,0,VALID,100,VALID,-0.0169808,VALID,18.6839,VALID,152,VALID,0,
2009-01-12, 00:39:00,VALID,919.603,VALID,0,VALID,100,VALID,-0.0169808,VALID,18.6969,VALID,164,VALID,0,
2009-01-12, 00:40:00,VALID,919.615,VALID,0,VALID,100,VALID,0,VALID,18.7031,VALID,153,VALID,0,
2009-01-12, 00:41:00,VALID,919.613,VALID,0,VALID,100,VALID,0,VALID,18.7066,VALID,151,VALID,0,
2009-01-12, 00:42:00,VALID,919.616,VALID,0,VALID,100,VALID,0.0169808,VALID,18.7131,VALID,152,VALID,0,
2009-01-12, 00:43:00,VALID,919.604,VALID,0,VALID,100,VALID,0,VALID,18.7129,VALID,154,VALID,0,
2009-01-12, 00:44:00,VALID,919.584,VALID,0,VALID,100,VALID,-0.0169808,VALID,18.7488,VALID,157,VALID,0,
2009-01-12, 00:45:00,VALID,919.59,VALID,0,VALID,100,VALID,0,VALID,18.7585,VALID,157,VALID,0,
2009-01-12, 00:46:00,VALID,919.568,VALID,0,VALID,100,VALID,0,VALID,18.771,VALID,157,VALID,0,
2009-01-12, 00:47:00,VALID,919.566,VALID,0,VALID,100,VALID,0,VALID,18.7812,VALID,158,VALID,0,
2009-01-12, 00:48:00,VALID,919.579,VALID,0,VALID,100,VALID,0,VALID,18.8037,VALID,163,VALID,0,
2009-01-12, 00:49:00,VALID,919.586,VALID,0,VALID,100,VALID,0,VALID,18.8102,VALID,168,VALID,0,
2009-01-12, 00:50:00,VALID,919.574,VALID,0,VALID,100,VALID,0,VALID,18.8169,VALID,171,VALID,0,
2009-01-12, 00:51:00,VALID,919.532,VALID,0,VALID,100,VALID,0.0169808,VALID,18.7935,VALID,171,VALID,0,
2009-01-12, 00:52:00,VALID,919.506,VALID,0,VALID,100,VALID,0,VALID,18.7585,VALID,171,VALID,0,
2009-01-12, 00:53:00,VALID,919.491,VALID,0,VALID,100,VALID,-0.101885,VALID,18.7273,VALID,171,VALID,0,
2009-01-12, 00:54:00,VALID,919.494,VALID,0,VALID,100,VALID,-0.118866,VALID,18.6918,VALID,171,VALID,0,
2009-01-12, 00:55:00,VALID,919.503,VALID,0,VALID,100,VALID,-0.135847,VALID,18.7115,VALID,171,VALID,0,
2009-01-12, 00:56:00,VALID,919.497,VALID,0,VALID,100,VALID,-0.101885,VALID,18.734,VALID,171,VALID,0,
2009-01-12, 00:57:00,VALID,919.484,VALID,0,VALID,100,VALID,-0.101885,VALID,18.7465,VALID,171,VALID,0,
2009-01-12, 00:58:00,VALID,919.474,VALID,0,VALID,100,VALID,-0.152827,VALID,18.7597,VALID,170,VALID,0,
2009-01-12, 00:59:00,VALID,919.472,VALID,0,VALID,100,VALID,-0.118866,VALID,18.7989,VALID,168,VALID,0,
2009-01-12, 01:00:00,VALID,919.481,VALID,0,VALID,100,VALID,-0.118866,VALID,18.8049,VALID,167,VALID,0,
2009-01-12, 01:01:00,VALID,919.484,VALID,0,VALID,100,VALID,-0.118866,VALID,18.8345,VALID,167,VALID,0,
2009-01-12, 01:02:00,VALID,919.47,VALID,0,VALID,100,VALID,-0.135847,VALID,18.8345,VALID,167,VALID,0,
2009-01-12, 01:03:00,VALID,919.453,VALID,0,VALID,100,VALID,-0.118866,VALID,18.8445,VALID,166,VALID,0,
2009-01-12, 01:04:00,VALID,919.436,VALID,0,VALID,100,VALID,-0.118866,VALID,18.8575,VALID,162,VALID,0,
2009-01-12, 01:05:00,VALID,919.431,VALID,0,VALID,100,VALID,-0.101885,VALID,18.8508,VALID,158,VALID,0,
2009-01-12, 01:06:00,VALID,919.412,VALID,0,VALID,100,VALID,-0.101885,VALID,18.8378,VALID,155,VALID,0,
2009-01-12, 01:07:00,VALID,919.41,VALID,0,VALID,100,VALID,-0.118866,VALID,18.8278,VALID,155,VALID,0,
2009-01-12, 01:08:00,VALID,919.419,VALID,0,VALID,100,VALID,-0.0169808,VALID,18.8099,VALID,155,VALID,0,
2009-01-12, 01:09:00,VALID,919.417,VALID,0,VALID,100,VALID,-0.0169808,VALID,18.803,VALID,154,VALID,0,
2009-01-12, 01:10:00,VALID,919.398,VALID,0,VALID,100,VALID,-0.0169808,VALID,18.7902,VALID,148,VALID,0,
2009-01-12, 01:11:00,VALID,919.401,VALID,0,VALID,100,VALID,0,VALID,18.7708,VALID,138,VALID,0,
2009-01-12, 01:12:00,VALID,919.388,VALID,0,VALID,100,VALID,0.0169808,VALID,18.7546,VALID,135,VALID,0,
2009-01-12, 01:13:00,VALID,919.386,VALID,0,VALID,100,VALID,0,VALID,18.7191,VALID,132,VALID,0,
2009-01-12, 01:14:00,VALID,919.387,VALID,0,VALID,100,VALID,0,VALID,18.6769,VALID,132,VALID,0,
2009-01-12, 01:15:00,VALID,919.37,VALID,0,VALID,100,VALID,0,VALID,18.6281,VALID,130,VALID,0,
2009-01-12, 01:16:00,VALID,919.349,VALID,0,VALID,100,VALID,0,VALID,18.6086,VALID,118,VALID,0,
2009-01-12, 01:17:00,VALID,919.312,VALID,0,VALID,100,VALID,-0.0169808,VALID,18.5991,VALID,107,VALID,0,
2009-01-12, 01:18:00,VALID,919.299,VALID,0,VALID,100,VALID,0,VALID,18.5827,VALID,110,VALID,0,
2009-01-12, 01:19:00,VALID,919.28,VALID,0,VALID,100,VALID,-0.0339617,VALID,18.5607,VALID,114,VALID,0,
2009-01-12, 01:20:00,VALID,919.279,VALID,0,VALID,100,VALID,-0.0169808,VALID,18.5178,VALID,107,VALID,0,
2009-01-12, 01:21:00,VALID,919.285,VALID,0,VALID,100,VALID,-0.0169808,VALID,18.4854,VALID,116,VALID,0.099657,
2009-01-12, 01:22:00,VALID,919.274,VALID,0,VALID,100,VALID,0,VALID,18.4763,VALID,118,VALID,0,
2009-01-12, 01:23:00,VALID,919.253,VALID,0,VALID,100,VALID,-0.101885,VALID,18.4511,VALID,113,VALID,0,
2009-01-12, 01:24:00,VALID,919.259,VALID,0,VALID,100,VALID,-0.101885,VALID,18.4152,VALID,113,VALID,0,
2009-01-12, 01:25:00,VALID,919.249,VALID,0,VALID,100,VALID,-0.101885,VALID,18.4087,VALID,113,VALID,0,
2009-01-12, 01:26:00,VALID,919.236,VALID,0,VALID,100,VALID,-0.101885,VALID,18.4022,VALID,113,VALID,0,
2009-01-12, 01:27:00,VALID,919.215,VALID,0,VALID,100,VALID,-0.101885,VALID,18.4189,VALID,113,VALID,0,
2009-01-12, 01:28:00,VALID,919.21,VALID,0,VALID,100,VALID,-0.0849042,VALID,18.4024,VALID,113,VALID,0,
2009-01-12, 01:29:00,VALID,919.205,VALID,0,VALID,100,VALID,-0.101885,VALID,18.3927,VALID,115,VALID,0,
2009-01-12, 01:30:00,VALID,919.199,VALID,0,VALID,100,VALID,-0.0849042,VALID,18.4027,VALID,116,VALID,0,
2009-01-12, 01:31:00,VALID,919.187,VALID,0,VALID,100,VALID,-0.101885,VALID,18.3732,VALID,116,VALID,0,
2009-01-12, 01:32:00,VALID,919.151,VALID,0,VALID,100,VALID,-0.118866,VALID,18.3505,VALID,116,VALID,0,
2009-01-12, 01:33:00,VALID,919.112,VALID,0,VALID,100,VALID,-0.118866,VALID,18.3216,VALID,116,VALID,0,
2009-01-12, 01:34:00,VALID,919.103,VALID,0,VALID,100,VALID,-0.118866,VALID,18.2989,VALID,115,VALID,0,
2009-01-12, 01:35:00,VALID,919.093,VALID,0,VALID,100,VALID,-0.0849042,VALID,18.2827,VALID,115,VALID,0,
2009-01-12, 01:36:00,VALID,919.094,VALID,0,VALID,100,VALID,-0.135847,VALID,18.2762,VALID,115,VALID,0,
2009-01-12, 01:37:00,VALID,919.103,VALID,0,VALID,100,VALID,-0.0679233,VALID,18.2725,VALID,115,VALID,0,
2009-01-12, 01:38:00,VALID,919.099,VALID,0,VALID,100,VALID,0.0169808,VALID,18.2613,VALID,115,VALID,0,
2009-01-12, 01:39:00,VALID,919.091,VALID,0,VALID,100,VALID,0.0509425,VALID,18.2683,VALID,115,VALID,0,
2009-01-12, 01:40:00,VALID,919.1,VALID,0,VALID,100,VALID,0,VALID,18.2417,VALID,115,VALID,0,
2009-01-12, 01:41:00,VALID,919.089,VALID,0,VALID,100,VALID,0,VALID,18.2224,VALID,115,VALID,0,
2009-01-12, 01:42:00,VALID,919.075,VALID,0,VALID,100,VALID,0.0169808,VALID,18.2324,VALID,115,VALID,0,
2009-01-12, 01:43:00,VALID,919.063,VALID,0,VALID,100,VALID,0.0339617,VALID,18.222,VALID,140,VALID,0,
2009-01-12, 01:44:00,VALID,919.042,VALID,0,VALID,100,VALID,-0.0169808,VALID,18.2326,VALID,150,VALID,0,
2009-01-12, 01:45:00,VALID,919.021,VALID,0,VALID,100,VALID,-0.0169808,VALID,18.2419,VALID,150,VALID,0,
2009-01-12, 01:46:00,VALID,919.004,VALID,0,VALID,100,VALID,-0.0169808,VALID,18.2261,VALID,150,VALID,0,
2009-01-12, 01:47:00,VALID,918.995,VALID,0,VALID,100,VALID,-0.0169808,VALID,18.2164,VALID,150,VALID,0,
2009-01-12, 01:48:00,VALID,918.97,VALID,0,VALID,100,VALID,0,VALID,18.2328,VALID,150,VALID,0,
2009-01-12, 01:49:00,VALID,918.974,VALID,0,VALID,100,VALID,0,VALID,18.2583,VALID,149,VALID,0,
2009-01-12, 01:50:00,VALID,918.97,VALID,0,VALID,100,VALID,0.0339617,VALID,18.281,VALID,147,VALID,0,
2009-01-12, 01:51:00,VALID,918.977,VALID,0,VALID,100,VALID,0.0169808,VALID,18.2975,VALID,147,VALID,0,
2009-01-12, 01:52:00,VALID,918.974,VALID,0,VALID,100,VALID,0,VALID,18.3202,VALID,147,VALID,0,
2009-01-12, 01:53:00,VALID,918.959,VALID,0,VALID,100,VALID,-0.0169808,VALID,18.3454,VALID,147,VALID,0,
2009-01-12, 01:54:00,VALID,918.947,VALID,0,VALID,100,VALID,-0.0169808,VALID,18.3783,VALID,147,VALID,0,
2009-01-12, 01:55:00,VALID,918.933,VALID,0,VALID,100,VALID,0,VALID,18.3688,VALID,147,VALID,0,
2009-01-12, 01:56:00,VALID,918.924,VALID,0,VALID,100,VALID,0,VALID,18.3619,VALID,141,VALID,0.0808503,
2009-01-12, 01:57:00,VALID,918.895,VALID,0,VALID,100,VALID,0.0339617,VALID,18.3681,VALID,136,VALID,0,
2009-01-12, 01:58:00,VALID,918.857,VALID,0,VALID,100,VALID,0.0169808,VALID,18.3521,VALID,124,VALID,0,
2009-01-12, 01:59:00,VALID,918.854,VALID,0,VALID,100,VALID,0,VALID,18.3521,VALID,115,VALID,0,
2009-01-12, 02:00:00,VALID,918.872,VALID,0,VALID,100,VALID,0.0339617,VALID,18.3132,VALID,106,VALID,0,
2009-01-12, 02:01:00,VALID,918.903,VALID,0,VALID,100,VALID,0,VALID,18.2868,VALID,105,VALID,0,
2009-01-12, 02:02:00,VALID,918.907,VALID,0,VALID,100,VALID,0.0169808,VALID,18.2836,VALID,108,VALID,0.0024858,
2009-01-12, 02:03:00,VALID,918.886,VALID,0,VALID,100,VALID,0,VALID,18.3037,VALID,116,VALID,0,
2009-01-12, 02:04:00,VALID,918.877,VALID,0,VALID,100,VALID,0,VALID,18.2998,VALID,116,VALID,0,
2009-01-12, 02:05:00,VALID,918.826,VALID,0,VALID,100,VALID,0.0339617,VALID,18.3061,VALID,116,VALID,0,
2009-01-12, 02:06:00,VALID,918.798,VALID,0,VALID,100,VALID,0,VALID,18.342,VALID,116,VALID,0,
2009-01-12, 02:07:00,VALID,918.792,VALID,0,VALID,100,VALID,0.0169808,VALID,18.3681,VALID,115,VALID,0,
2009-01-12, 02:08:00,VALID,918.796,VALID,0,VALID,100,VALID,0,VALID,18.385,VALID,114,VALID,0,
2009-01-12, 02:09:00,VALID,918.817,VALID,0,VALID,100,VALID,0.0339617,VALID,18.3853,VALID,114,VALID,0,
2009-01-12, 02:10:00,VALID,918.825,VALID,0,VALID,100,VALID,0.0509425,VALID,18.3616,VALID,115,VALID,0,
2009-01-12, 02:11:00,VALID,918.834,VALID,0,VALID,100,VALID,0.0679233,VALID,18.3394,VALID,116,VALID,0,
2009-01-12, 02:12:00,VALID,918.82,VALID,0,VALID,100,VALID,0.0679233,VALID,18.313,VALID,118,VALID,0,
2009-01-12, 02:13:00,VALID,918.801,VALID,0,VALID,100,VALID,0.0339617,VALID,18.2808,VALID,125,VALID,0,
2009-01-12, 02:14:00,VALID,918.787,VALID,0,VALID,100,VALID,0.0169808,VALID,18.2588,VALID,142,VALID,0,
2009-01-12, 02:15:00,VALID,918.77,VALID,0,VALID,100,VALID,0.0169808,VALID,18.2356,VALID,148,VALID,0.00685976,
2009-01-12, 02:16:00,VALID,918.761,VALID,0,VALID,100,VALID,0.0509425,VALID,18.2423,VALID,146,VALID,0.00609756,
2009-01-12, 02:17:00,VALID,918.747,VALID,0,VALID,100,VALID,0.0339617,VALID,18.2354,VALID,146,VALID,0.0388808,
2009-01-12, 02:18:00,VALID,918.732,VALID,0,VALID,100,VALID,0.0339617,VALID,18.2423,VALID,146,VALID,0.0492188,
2009-01-12, 02:19:00,VALID,918.702,VALID,0,VALID,100,VALID,0.0339617,VALID,18.2551,VALID,143,VALID,0.13244,
2009-01-12, 02:20:00,VALID,918.682,VALID,0,VALID,100,VALID,0.0509425,VALID,18.2481,VALID,139,VALID,0.00133384,
2009-01-12, 02:21:00,VALID,918.672,VALID,0,VALID,100,VALID,0.0509425,VALID,18.2252,VALID,136,VALID,0.103051,
2009-01-12, 02:22:00,VALID,918.676,VALID,0,VALID,100,VALID,0.0509425,VALID,18.1997,VALID,136,VALID,0,
2009-01-12, 02:23:00,VALID,918.693,VALID,0,VALID,100,VALID,-0.0509425,VALID,18.1814,VALID,142,VALID,0,
2009-01-12, 02:24:00,VALID,918.69,VALID,0,VALID,100,VALID,-0.0169808,VALID,18.162,VALID,145,VALID,0,
2009-01-12, 02:25:00,VALID,918.697,VALID,0,VALID,100,VALID,-0.0679233,VALID,18.1423,VALID,145,VALID,0.0525073,
2009-01-12, 02:26:00,VALID,918.683,VALID,0,VALID,100,VALID,-0.0509425,VALID,18.1393,VALID,138,VALID,0.109557,
2009-01-12, 02:27:00,VALID,918.651,VALID,0,VALID,100,VALID,-0.0849042,VALID,18.1557,VALID,143,VALID,0.193026,
2009-01-12, 02:28:00,VALID,918.601,VALID,0,VALID,100,VALID,-0.0509425,VALID,18.1782,VALID,133,VALID,0.258539,
2009-01-12, 02:29:00,VALID,918.579,VALID,0,VALID,100,VALID,-0.0509425,VALID,18.2074,VALID,129,VALID,0.160342,
2009-01-12, 02:30:00,VALID,918.585,VALID,0,VALID,100,VALID,-0.0509425,VALID,18.2236,VALID,133,VALID,0.00284091,
2009-01-12, 02:31:00,VALID,918.572,VALID,0,VALID,100,VALID,-0.0849042,VALID,18.2203,VALID,134,VALID,0,
2009-01-12, 02:32:00,VALID,918.571,VALID,0,VALID,100,VALID,-0.0339617,VALID,18.2236,VALID,138,VALID,0,
2009-01-12, 02:33:00,VALID,918.55,VALID,0,VALID,100,VALID,-0.0679233,VALID,18.2234,VALID,136,VALID,0.032848,
2009-01-12, 02:34:00,VALID,918.562,VALID,0,VALID,100,VALID,-0.0509425,VALID,18.2268,VALID,138,VALID,0,
2009-01-12, 02:35:00,VALID,918.546,VALID,0,VALID,100,VALID,-0.0509425,VALID,18.2333,VALID,139,VALID,0.236632,
2009-01-12, 02:36:00,VALID,918.542,VALID,0,VALID,100,VALID,-0.0849042,VALID,18.2234,VALID,134,VALID,0.093936,
2009-01-12, 02:37:00,VALID,918.519,VALID,0,VALID,100,VALID,0,VALID,18.2301,VALID,136,VALID,0,
2009-01-12, 02:38:00,VALID,918.46,VALID,0,VALID,100,VALID,-0.0679233,VALID,18.2433,VALID,130,VALID,0.03125,
2009-01-12, 02:39:00,VALID,918.429,VALID,0,VALID,100,VALID,-0.0169808,VALID,18.2268,VALID,123,VALID,0,
2009-01-12, 02:40:00,VALID,918.432,VALID,0,VALID,100,VALID,-0.101885,VALID,18.2238,VALID,125,VALID,0.119141,
2009-01-12, 02:41:00,VALID,918.441,VALID,0,VALID,100,VALID,-0.0509425,VALID,18.2104,VALID,128,VALID,0.093192,
2009-01-12, 02:42:00,VALID,918.46,VALID,0,VALID,100,VALID,-0.0339617,VALID,18.2363,VALID,140,VALID,0.0882994,
2009-01-12, 02:43:00,VALID,918.463,VALID,0,VALID,100,VALID,-0.0679233,VALID,18.2565,VALID,144,VALID,0.00420673,
2009-01-12, 02:44:00,VALID,918.452,VALID,0,VALID,100,VALID,-0.0509425,VALID,18.2657,VALID,146,VALID,0.000195313,
2009-01-12, 02:45:00,VALID,918.415,VALID,0,VALID,100,VALID,-0.0339617,VALID,18.2722,VALID,139,VALID,0.468932,
2009-01-12, 02:46:00,VALID,918.385,VALID,0,VALID,100,VALID,-0.0339617,VALID,18.2852,VALID,141,VALID,0.0238281,
2009-01-12, 02:47:00,VALID,918.353,VALID,0,VALID,100,VALID,-0.0339617,VALID,18.285,VALID,140,VALID,0,
2009-01-12, 02:48:00,VALID,918.325,VALID,0,VALID,100,VALID,-0.0509425,VALID,18.2822,VALID,138,VALID,0,
2009-01-12, 02:49:00,VALID,918.32,VALID,0,VALID,100,VALID,-0.101885,VALID,18.269,VALID,139,VALID,0,
2009-01-12, 02:50:00,VALID,918.334,VALID,0,VALID,100,VALID,-0.0169808,VALID,18.2625,VALID,143,VALID,0,
2009-01-12, 02:51:00,VALID,918.353,VALID,0,VALID,100,VALID,-0.0679233,VALID,18.2558,VALID,160,VALID,0.046131,
2009-01-12, 02:52:00,VALID,918.328,VALID,0,VALID,100,VALID,-0.0679233,VALID,18.2396,VALID,157,VALID,0,
2009-01-12, 02:53:00,VALID,918.309,VALID,0,VALID,100,VALID,-0.0679233,VALID,18.2398,VALID,148,VALID,0,
2009-01-12, 02:54:00,VALID,918.293,VALID,0,VALID,100,VALID,-0.0849042,VALID,18.2342,VALID,143,VALID,0,
2009-01-12, 02:55:00,VALID,918.271,VALID,0,VALID,100,VALID,-0.0679233,VALID,18.2006,VALID,144,VALID,0.43149,
2009-01-12, 02:56:00,VALID,918.273,VALID,0,VALID,100,VALID,-0.101885,VALID,18.1974,VALID,145,VALID,0.165516,
2009-01-12, 02:57:00,VALID,918.252,VALID,0,VALID,100,VALID,-0.0849042,VALID,18.1877,VALID,154,VALID,0.386905,
2009-01-12, 02:58:00,VALID,918.248,VALID,0,VALID,100,VALID,-0.0849042,VALID,18.1877,VALID,168,VALID,0.0958984,
2009-01-12, 02:59:00,VALID,918.251,VALID,0,VALID,100,VALID,-0.101885,VALID,18.2009,VALID,175,VALID,0,
2009-01-12, 03:00:00,VALID,918.248,VALID,0,VALID,100,VALID,-0.0849042,VALID,18.2041,VALID,157,VALID,0.0325521,
2009-01-12, 03:01:00,VALID,918.239,VALID,0,VALID,100,VALID,-0.0509425,VALID,18.1974,VALID,157,VALID,0,
2009-01-12, 03:02:00,VALID,918.217,VALID,0,VALID,100,VALID,-0.101885,VALID,18.1981,VALID,157,VALID,0,
2009-01-12, 03:03:00,VALID,918.19,VALID,0,VALID,100,VALID,-0.101885,VALID,18.1784,VALID,154,VALID,0,
2009-01-12, 03:04:00,VALID,918.177,VALID,0,VALID,100,VALID,-0.118866,VALID,18.1527,VALID,136,VALID,0,
2009-01-12, 03:05:00,VALID,918.173,VALID,0,VALID,100,VALID,-0.118866,VALID,18.1235,VALID,130,VALID,0,
2009-01-12, 03:06:00,VALID,918.158,VALID,0,VALID,100,VALID,-0.101885,VALID,18.0749,VALID,130,VALID,0,
2009-01-12, 03:07:00,VALID,918.179,VALID,0,VALID,100,VALID,-0.0679233,VALID,18.0515,VALID,130,VALID,0,
2009-01-12, 03:08:00,VALID,918.21,VALID,0,VALID,100,VALID,0.0169808,VALID,18.057,VALID,130,VALID,0,
2009-01-12, 03:09:00,VALID,918.235,VALID,0,VALID,100,VALID,0.0509425,VALID,18.0469,VALID,130,VALID,0,
2009-01-12, 03:10:00,VALID,918.222,VALID,0,VALID,100,VALID,0,VALID,18.0276,VALID,130,VALID,0,
2009-01-12, 03:11:00,VALID,918.208,VALID,0,VALID,100,VALID,0,VALID,17.9563,VALID,130,VALID,0,
2009-01-12, 03:12:00,VALID,918.197,VALID,0,VALID,100,VALID,0.0169808,VALID,17.8886,VALID,130,VALID,0,
2009-01-12, 03:13:00,VALID,918.182,VALID,0,VALID,100,VALID,0.0339617,VALID,17.869,VALID,130,VALID,0,
2009-01-12, 03:14:00,VALID,918.153,VALID,0,VALID,100,VALID,0.0339617,VALID,17.8004,VALID,130,VALID,0,
2009-01-12, 03:15:00,VALID,918.114,VALID,0,VALID,100,VALID,0.0169808,VALID,17.7483,VALID,112,VALID,0,
2009-01-12, 03:16:00,VALID,918.108,VALID,0,VALID,100,VALID,0.0169808,VALID,17.7263,VALID,105,VALID,0,
2009-01-12, 03:17:00,VALID,918.085,VALID,0,VALID,100,VALID,0.0169808,VALID,17.765,VALID,105,VALID,0,
2009-01-12, 03:18:00,VALID,918.081,VALID,0,VALID,100,VALID,0,VALID,17.846,VALID,105,VALID,0,
2009-01-12, 03:19:00,VALID,918.071,VALID,0,VALID,100,VALID,0.0169808,VALID,17.9528,VALID,105,VALID,0,
2009-01-12, 03:20:00,VALID,918.059,VALID,0,VALID,100,VALID,0.0339617,VALID,18.0276,VALID,105,VALID,0,
2009-01-12, 03:21:00,VALID,918.013,VALID,0,VALID,100,VALID,0.0169808,VALID,18.0795,VALID,105,VALID,0,
2009-01-12, 03:22:00,VALID,918.012,VALID,0,VALID,100,VALID,0.0339617,VALID,18.089,VALID,105,VALID,0.236737,
2009-01-12, 03:23:00,VALID,918.009,VALID,0,VALID,100,VALID,-0.0849042,VALID,18.0844,VALID,105,VALID,0,
2009-01-12, 03:24:00,VALID,918.019,VALID,0,VALID,100,VALID,-0.0849042,VALID,18.0809,VALID,113,VALID,0.335211,
2009-01-12, 03:25:00,VALID,918.042,VALID,0,VALID,100,VALID,-0.101885,VALID,18.0776,VALID,110,VALID,0,
2009-01-12, 03:26:00,VALID,918.052,VALID,0,VALID,100,VALID,-0.101885,VALID,18.0779,VALID,110,VALID,0,
2009-01-12, 03:27:00,VALID,918.068,VALID,0,VALID,100,VALID,-0.101885,VALID,18.0681,VALID,115,VALID,0,
2009-01-12, 03:28:00,VALID,918.08,VALID,0,VALID,100,VALID,-0.0849042,VALID,18.0614,VALID,130,VALID,0,
2009-01-12, 03:29:00,VALID,918.106,VALID,0,VALID,100,VALID,-0.101885,VALID,18.0714,VALID,135,VALID,0,
2009-01-12, 03:30:00,VALID,918.094,VALID,0,VALID,100,VALID,-0.101885,VALID,18.0478,VALID,135,VALID,0,
2009-01-12, 03:31:00,VALID,918.088,VALID,0,VALID,100,VALID,-0.0849042,VALID,17.9901,VALID,135,VALID,0,
2009-01-12, 03:32:00,VALID,918.089,VALID,0,VALID,100,VALID,-0.0679233,VALID,17.9185,VALID,135,VALID,0,
2009-01-12, 03:33:00,VALID,918.068,VALID,0,VALID,100,VALID,-0.0849042,VALID,17.8344,VALID,135,VALID,0,
2009-01-12, 03:34:00,VALID,918.081,VALID,0,VALID,100,VALID,-0.0849042,VALID,17.792,VALID,135,VALID,0,
2009-01-12, 03:35:00,VALID,918.095,VALID,0,VALID,100,VALID,-0.101885,VALID,17.8057,VALID,135,VALID,0,
2009-01-12, 03:36:00,VALID,918.112,VALID,0,VALID,100,VALID,-0.101885,VALID,17.8446,VALID,135,VALID,0,
2009-01-12, 03:37:00,VALID,918.092,VALID,0,VALID,100,VALID,-0.101885,VALID,17.8539,VALID,135,VALID,0,
2009-01-12, 03:38:00,VALID,918.078,VALID,0,VALID,100,VALID,-0.101885,VALID,17.8573,VALID,135,VALID,0,
2009-01-12, 03:39:00,VALID,918.044,VALID,0,VALID,100,VALID,-0.0849042,VALID,17.8828,VALID,132,VALID,0,
2009-01-12, 03:40:00,VALID,918.02,VALID,0,VALID,100,VALID,-0.101885,VALID,17.8958,VALID,130,VALID,0,
2009-01-12, 03:41:00,VALID,918,VALID,0,VALID,100,VALID,-0.0849042,VALID,17.8634,VALID,130,VALID,0,
2009-01-12, 03:42:00,VALID,917.97,VALID,0,VALID,100,VALID,-0.101885,VALID,17.8634,VALID,112,VALID,0,
2009-01-12, 03:43:00,VALID,917.967,VALID,0,VALID,100,VALID,-0.101885,VALID,17.8993,VALID,112,VALID,0,
2009-01-12, 03:44:00,VALID,917.974,VALID,0,VALID,100,VALID,-0.0679233,VALID,17.9153,VALID,112,VALID,0,
2009-01-12, 03:45:00,VALID,917.984,VALID,0,VALID,100,VALID,-0.0679233,VALID,17.9218,VALID,112,VALID,0,
2009-01-12, 03:46:00,VALID,917.997,VALID,0,VALID,100,VALID,-0.101885,VALID,17.8895,VALID,112,VALID,0,
2009-01-12, 03:47:00,VALID,917.985,VALID,0,VALID,100,VALID,-0.0849042,VALID,17.8666,VALID,112,VALID,0,
2009-01-12, 03:48:00,VALID,917.948,VALID,0,VALID,100,VALID,-0.0679233,VALID,17.7531,VALID,112,VALID,0,
2009-01-12, 03:49:00,VALID,917.931,VALID,0,VALID,100,VALID,-0.101885,VALID,17.5588,VALID,108,VALID,0,
2009-01-12, 03:50:00,VALID,917.925,VALID,0,VALID,100,VALID,-0.101885,VALID,17.4486,VALID,98,VALID,0,
2009-01-12, 03:51:00,VALID,917.941,VALID,0,VALID,100,VALID,-0.118866,VALID,17.5099,VALID,98,VALID,0,